Weather History for TIST - September, 2013

Change the Weather History Date:

Monday, September 30, 2013

  Actual Average Record
Temperature  
Mean Temperature 87 °F 84 °F  
Max Temperature 90 °F 90 °F 95 °F (1994)
Min Temperature 83 °F 78 °F 70 °F (1991)
Degree Days  
Heating Degree Days 0 0  
Month to date heating degree days 0 0  
Since 1 July heating degree days 0 0  
Cooling Degree Days 22 19  
Month to date cooling degree days 577 568  
Year to date cooling degree days 4479 4559  
Growing Degree Days 36 (Base 50)    
Moisture  
Dew Point 78 °F    
Average Humidity 79    
Maximum Humidity 88    
Minimum Humidity 70    
Precipitation  
Precipitation 0.00 in 0.20 in 1.57 in (1959)
Month to date precipitation 9.82 5.58  
Year to date precipitation 34.43 25.73  
Sea Level Pressure  
Sea Level Pressure 29.99 in    
Wind  
Wind Speed 10 mph (ESE)    
Max Wind Speed 16 mph    
Max Gust Speed 21 mph    
Visibility 10 miles    
Events      
T = Trace of Precipitation, MM = Missing Value Source: NWS Daily Summary

Daily Weather History Graph

Daily Weather History Graph

Search for Another Location

Airport or City:

Trip Planner

Search our weather history database for the weather conditions in past years. The results will help you decide how hot, cold, wet, or windy it might be!

Date:

Astronomy

Sep. 30, 2013 Rise Set
Actual Time 6:10 AM AST 6:09 PM AST
Civil Twilight 5:48 AM AST 6:30 PM AST
Nautical Twilight 5:23 AM AST 6:56 PM AST
Astronomical Twilight 4:57 AM AST 7:21 PM AST
Moon 2:15 AM AST (9/30) 3:09 PM AST (9/30)
Length of Visible Light 12h 42m
Length of Day
11h 58m
Waning Crescent, 19% of the Moon is Illuminated
Sep 30
Waning Crescent
Oct 4
New
Oct 11
First Quarter
Oct 18
Full
Oct 26
Last Quarter

Hourly Weather History & Observations

Time (AST) Temp. Heat Index Dew Point Humidity Pressure Visibility Wind Dir Wind Speed Gust Speed Precip Events Conditions
12:53 AM 84.9 °F 94.1 °F 75.9 °F 74% 29.99 in 10.0 mi SE 10.4 mph - N/A   Scattered Clouds
1:53 AM 84.9 °F 97.5 °F 79.0 °F 82% 29.97 in 10.0 mi ESE 12.7 mph - N/A   Scattered Clouds
2:53 AM 84.9 °F 97.5 °F 79.0 °F 82% 29.96 in 10.0 mi ESE 10.4 mph - N/A   Partly Cloudy
3:53 AM 84.0 °F 94.8 °F 78.1 °F 82% 29.95 in 10.0 mi ESE 9.2 mph 20.7 mph N/A   Scattered Clouds
4:08 AM 84.2 °F 96.1 °F 78.8 °F 84% 29.95 in 10.0 mi ESE 8.1 mph - N/A   Mostly Cloudy
4:37 AM 84.2 °F 96.1 °F 78.8 °F 84% 29.96 in 10.0 mi SE 11.5 mph - N/A   Scattered Clouds
5:53 AM 84.0 °F 94.8 °F 78.1 °F 82% 29.97 in 10.0 mi ESE 8.1 mph - N/A   Partly Cloudy
6:53 AM 84.9 °F 96.6 °F 78.1 °F 80% 29.99 in 10.0 mi SE 12.7 mph - N/A   Clear
7:53 AM 86.0 °F 98.3 °F 78.1 °F 77% 30.00 in 10.0 mi SE 12.7 mph - N/A   Partly Cloudy
9:53 AM 88.0 °F 103.1 °F 79.0 °F 75% 30.04 in 10.0 mi SSE 9.2 mph - N/A   Scattered Clouds
10:53 AM 89.1 °F 104.4 °F 79.0 °F 72% 30.02 in 10.0 mi SE 11.5 mph - N/A   Clear
11:53 AM 89.1 °F 104.4 °F 79.0 °F 72% 30.01 in 10.0 mi SE 11.5 mph - N/A   Clear
12:53 PM 89.1 °F 104.4 °F 79.0 °F 72% 29.98 in 10.0 mi ESE 11.5 mph - N/A   Clear
2:53 PM 87.1 °F 101.5 °F 79.0 °F 77% 29.95 in 10.0 mi SE 10.4 mph - N/A   Clear
3:53 PM 87.1 °F 101.5 °F 79.0 °F 77% 29.95 in 10.0 mi SE 10.4 mph - N/A   Clear
4:53 PM 87.1 °F 99.8 °F 78.1 °F 74% 29.96 in 10.0 mi SE 11.5 mph - N/A   Clear
5:53 PM 86.0 °F 99.3 °F 79.0 °F 79% 29.97 in 10.0 mi SE 10.4 mph - N/A   Partly Cloudy
6:53 PM 84.9 °F 96.6 °F 78.1 °F 80% 29.98 in 10.0 mi East 8.1 mph - N/A   Clear
7:53 PM 84.0 °F 93.7 °F 77.0 °F 79% 30.01 in 10.0 mi East 6.9 mph - N/A   Clear
8:53 PM 84.0 °F 93.7 °F 77.0 °F 79% 30.02 in 10.0 mi East 8.1 mph - N/A   Clear
9:53 PM 82.9 °F 91.8 °F 77.0 °F 82% 30.02 in 10.0 mi East 8.1 mph - N/A   Clear
10:53 PM 82.9 °F 92.8 °F 78.1 °F 85% 30.02 in 10.0 mi East 8.1 mph - N/A   Clear
11:53 PM 82.9 °F 92.8 °F 78.1 °F 85% 30.03 in 10.0 mi East 6.9 mph - N/A   Clear